Regional Weather Roundup
Issued by NWS

Home | Current Version | Previous Version | Text Only | Print | Product List | Glossary On
Versions: 1 2 3 4 5 6 7 8 9 10 11 12 13 14 15 16 17 18 19 20 21 22 23 24 25 26 27 28 29 30 31 32 33 34 35 36 37 38 39 40 41 42 43 44 45 46 47 48 49 50
000
ASUS46 KLOX 021213
RWRCA

SOUTHERN CALIFORNIA WEATHER ROUNDUP
NATIONAL WEATHER SERVICE OXNARD CALIFORNIA
500 AM PDT MON MAY 02 2016

NOTE: "FAIR" INDICATES FEW OR NO CLOUDS BELOW 12,000 FEET WITH NO
SIGNIFICANT WEATHER AND/OR OBSTRUCTIONS TO VISIBILITY.

  -  STATIONS PRECEEDED BY AN ASTERISK (*) ARE NOT NWS OR FAA
     STATIONS AND ARE NOT SUBJECT TO NWS AND FAA QUALITY CONTROL.

CAZ041-042-087-021300-
LA AND ORANGE COUNTY COASTAL AREAS


CITY           SKY/WX    TMP DP  RH WIND       PRES   REMARKS
L.A. DOWNTOWN  MOCLDY    56  53  90 CALM      30.00S
L.A. AIRPORT   MOCLDY    57  53  86 W6        30.01R
LONG BEACH     CLOUDY    59  53  80 NW3       30.00S

CITY           SKY/WX    TMP DP  RH WIND       PRES   REMARKS
AVALON           N/A     59 N/A N/A MISG        N/A
FULLERTON      PTCLDY    57  51  80 CALM      29.99S
HAWTHORNE      MOCLDY    57  53  86 CALM      30.01S
*LEO CARRILLO    N/A     54  51  88 N7          N/A
*LOS ALAMITOS  FAIR      55  52  91 NW1       29.99F
*REDONDO BEACH   N/A     56  52  88 CALM      30.00S
SANTA ANA      CLEAR     57  51  80 CALM      29.99F
STA MONICA APT MOCLDY    56  50  80 CALM      30.01S
*STA MON PIER    N/A     56  53  89 N2        29.94S

$$

CAZ547-548-048-021300-
LA COUNTY VALLEYS AND INLAND EMPIRE


CITY           SKY/WX    TMP DP  RH WIND       PRES   REMARKS
BURBANK        CLEAR     56  51  84 CALM      29.99S
VAN NUYS       CLEAR     56  50  80 CALM      29.99S

CITY           SKY/WX    TMP DP  RH WIND       PRES   REMARKS
CORONA AIRPORT SUNNY     48  46  93 CALM      30.01S
*CHATSWORTH      N/A     55  49  81 NE1       30.00S
CHINO          CLEAR     54  50  86 CALM      30.01S FOG
*CLAREMONT       N/A     51  49  93 N2          N/A
MARCH AFB      CLEAR     49  49 100 CALM      30.00R
*NORTHRIDGE      N/A     54  50  87 CALM        N/A
ONTARIO        PTCLDY    54  50  86 CALM      29.99F
*PASADENA        N/A     55  54  94 CALM        N/A
RIVERSIDE      CLEAR     55  50  83 CALM      30.00S
SAN BERNARDINO NOT AVBL
*SAN GABRIEL     N/A     56  52  86 CALM      30.07S
*SAN RAFAEL HI   N/A     51  51 100 N2          N/A
*SAUGUS          N/A     54  51  90 CALM        N/A
*WHITEMAN AP   NOT AVBL
*WHITTIER HILL   N/A     52  52  99 CALM        N/A
*WOODLAND HILL   N/A     52  48  87 S1          N/A

$$

CAZ054-055-021300-
LA AND SAN BERNARDINO COUNTY MOUNTAINS


CITY           SKY/WX    TMP DP  RH WIND       PRES   REMARKS
*ACTON           N/A     49  46  88 N5          N/A
*BIG BEAR AIRP SUNNY     30  28  93 CALM      30.14S
*BIG PINES       N/A     40  34  79 CALM        N/A
*CHILAO          N/A     50  32  49 CALM        N/A
SANDBERG       PTCLDY    54  34  46 N12       30.07S
*WARM SPRINGS    N/A     52  38  58 W7          N/A

$$

CAZ028-029-059-060-099-021300-
ANTELOPE VALLEY AND SURROUNDING AREAS


CITY           SKY/WX    TMP DP  RH WIND       PRES   REMARKS
LANCASTER      CLEAR     55  39  54 CALM      30.01R
PALMDALE       CLEAR     55  46  71 S8        30.01S
*POPPY PARK      N/A     54  39  56 W6          N/A

CITY           SKY/WX    TMP DP  RH WIND       PRES   REMARKS
29 PALMS       PTCLDY    57  38  48 CALM      30.05S
BARSTOW/DAGGET PTCLDY    59  41  51 W9        29.99S
BISHOP         CLEAR     35  30  82 N5        30.10S WCI  31
CHINA LAKE     PTCLDY    55  34  45 S3        30.00R
EDWARDS AFB    PTCLDY    54  43  66 SW5       29.99R
MOJAVE         PTCLDY    57  36  44 W3        30.01S
NEEDLES        CLEAR     63  47  55 CALM      29.96R
VICTORVILLE    CLEAR     52  39  62 CALM      30.02R

$$

CAZ039-040-021300-
VENTURA AND SANTA BARBARA COUNTY COAST


CITY           SKY/WX    TMP DP  RH WIND       PRES   REMARKS
CAMARILLO      CLOUDY    56  51  84 N3        30.01S
NWS OXNARD       N/A     56  51  86 CALM      30.00S
OXNARD AIRPORT CLOUDY    57  53  86 CALM      30.01S
*POINT MUGU    CLOUDY    57  52  83 NW3       30.01F
SBA APT/GOLETA CLOUDY    56  53  90 SE5       30.01S
*SANTA BARBARA   N/A     58  52  80 CALM      30.09S
*VENTURA         N/A     55  52  90 W1        29.99F

$$

CAZ044-045-021300-
VENTURA COUNTY VALLEYS


CITY           SKY/WX    TMP DP  RH WIND       PRES   REMARKS
*SIMI VALLEY     N/A     52  50  92 CALM      29.97R
*WESTLAKE VILL   N/A     48  45  90 CALM      29.99S
*OJAI            N/A     45  42  91 CALM      29.97S
*FILLMORE        N/A     49  45  85 CALM      29.91S

$$

CAZ053-021300-
VENTURA COUNTY MOUNTAINS


CITY           SKY/WX    TMP DP  RH WIND       PRES   REMARKS
*LOCKWOOD VLY    N/A     34  32  93 CALM        N/A
*ROSE VALLEY     N/A     36  37 100 MISG        N/A

$$

CAZ034-035-036-021300-
CENTRAL COAST AND SANTA YNEZ VALLEY


CITY           SKY/WX    TMP DP  RH WIND       PRES   REMARKS
SAN LUIS OBISP CLOUDY    56  52  86 CALM      30.00F
SANTA MARIA    CLOUDY    56  53  90 MISG      30.01S

CITY           SKY/WX    TMP DP  RH WIND       PRES   REMARKS
*CAL POLY SLO    N/A     54  54 100 CALM        N/A
*LOMPOC        CLOUDY    53  51  93 CALM      30.01S
*PISMO BEACH     N/A     55  53  92 CALM      30.01S
*SANTA YNEZ    FOG       50  50 100 CALM      30.01R VSB 1

$$

CAZ037-038-051-021300-
SAN LUIS OBISPO COUNTY INTERIOR AND CUYAMA VALLEY


CITY           SKY/WX    TMP DP  RH WIND       PRES   REMARKS
*CUYAMA          N/A     48  44  83 SE2       29.95R
PASO ROBLES    CLEAR     48  44  86 S5        30.00S

$$

CAZ032-033-061-021300-
SOUTHERN DESERTS


CITY           SKY/WX    TMP DP  RH WIND       PRES   REMARKS
BLYTHE         CLEAR     60  34  37 NW7       29.93R
IMPERIAL       CLEAR     62  48  60 CALM      29.90S
PALM SPRINGS   CLEAR     66  49  54 NW9       29.94S
THERMAL        CLEAR     63  50  62 NE5       29.90R

$$

ELSEWHERE ACROSS THE WESTERN UNITED STATES AND MEXICO


CITY           SKY/WX    TMP DP  RH WIND       PRES   REMARKS
DEATH VALLEY,    N/A     74  39  29 CALM        N/A
DENVER, CO     PTCLDY    29  22  75 SW7       30.24S WCI  22
GRAND CANYON,  CLEAR     30  28  92 CALM      30.18S
HONOLULU, HI   PTCLDY    75  66  73 NE16      30.07F
KAHULUI, MAUI  CLEAR     72  66  83 NE12      30.08F
LAKE TAHOE, CA CLEAR     30  28  92 S5        30.14R WCI  25
LAS VEGAS, NV  CLEAR     59  43  55 VRB3      29.99R
MAMMOTH LAKES, FAIR      28  27  96 CALM      30.17F
MEXICO CITY, M PTCLDY    57  36  44 E5        30.27R
PHOENIX, AZ    CLEAR     62  43  49 SW3       29.94S
PORTLAND, OR   PTCLDY    55  48  77 CALM      29.93S
RENO, NV       PTCLDY    45  34  65 CALM      30.10R
SALT LAKE CITY PTCLDY    45  31  58 NE3       30.15R
SAN DIEGO, CA  PTCLDY    58  51  78 NW3       30.00F
SAN FRANCISCO, PTCLDY    52  50  93 W3        29.99S
SAN JOSE, CA   CLEAR     54  48  80 SE6       29.99R
SEATTLE, WA    CLEAR     56  43  61 N3        29.97R
TIJUANA, MEX   PTCLDY    54  46  76 CALM      30.00F

$$

STATION/POSITION TIME  TEMP    WIND        PRES    VSBY  WAVE
                       AIR SEA DIR/SP/G                  HT/PER
                 (UTC) (F)     (DEG/KT/KT) (MB)    (MI)  (FT/S)
POINT ARGUELLO B NOT AVBL
WEST SANTA BARBA 1150   55 55  160/  4/  6 1015.6S         6/14
POINT CONCEPTION NOT AVBL
EAST SANTA BARBA 1100   55 56  240/  4/  4 1016.8R
SANTA MONICA BAY 1150   56 60  190/  2/  2 1016.3F         4/16



USA.gov is the U.S. government's official web portal to all federal, state and local government web resources and services.